GW4285 Weather Reports


Display with metric or nautical units.
time (UTC)temp
F
wind
direction
speed
MPH
gust
MPH
rain 1hr
in
rain 24hr
in
rain mn
in
humidity
%
barometer
mb
20260503024154 53 253 0.0 0.0 0.00 0.00 0.00 89 1011.5
20260503023650 53 265 0.0 0.0 0.00 0.00 0.00 89 1011.5
20260503023147 53 260 0.0 3.0 0.00 0.00 0.00 89 1011.4
20260503022644 53 239 0.0 0.0 0.00 0.00 0.00 88 1011.4
20260503022143 53 241 0.0 0.0 0.00 0.00 0.00 88 1011.4
20260503021640 53 290 2.0 5.0 0.00 0.00 0.00 88 1011.5
20260503021136 53 267 1.0 3.0 0.00 0.00 0.00 88 1011.6
20260503020634 53 264 3.0 7.0 0.00 0.00 0.00 88 1011.6
20260503020131 53 237 2.0 3.0 0.00 0.00 0.00 87 1011.6
20260503015628 53 255 3.0 5.0 0.00 0.00 0.00 86 1011.6
20260503015125 54 263 1.0 3.0 0.00 0.00 0.00 87 1011.7
20260503014620 54 269 2.0 5.0 0.00 0.00 0.00 86 1011.7
20260503014118 54 258 2.0 5.0 0.00 0.00 0.00 86 1011.7
20260503013615 54 244 3.0 7.0 0.00 0.00 0.00 85 1011.8
20260503013114 54 265 2.0 4.0 0.00 0.00 0.00 86 1011.9
20260503012611 54 271 3.0 4.0 0.00 0.00 0.00 85 1011.8
20260503012107 55 261 2.0 5.0 0.00 0.00 0.00 84 1011.8
20260503011603 55 252 1.0 3.0 0.00 0.00 0.00 84 1011.8
20260503011101 55 233 0.0 1.0 0.00 0.00 0.00 85 1011.8
20260503010557 54 251 0.0 5.0 0.00 0.00 0.00 86 1011.8
20260503010055 54 253 2.0 4.0 0.00 0.00 0.00 86 1011.8
20260503005551 54 228 2.0 11.0 0.00 0.00 0.00 85 1011.8
20260503005049 55 262 2.0 7.0 0.00 0.00 0.00 85 1011.9
20260503004544 55 288 2.0 8.0 0.00 0.00 0.00 85 1011.9
20260503004043 55 267 3.0 7.0 0.00 0.00 0.00 85 1011.9
20260503003539 55 258 0.0 7.0 0.00 0.00 0.00 84 1011.9
20260503003037 55 238 2.0 8.0 0.00 0.00 0.00 85 1011.9
20260503002533 55 235 4.0 8.0 0.00 0.00 0.00 85 1011.9
20260503002030 55 242 4.0 5.0 0.00 0.00 0.00 84 1012.0
20260503001527 55 262 5.0 10.0 0.00 0.00 0.00 84 1011.9
20260503001024 55 255 2.0 4.0 0.00 0.00 0.00 84 1011.9
20260503000522 56 252 3.0 10.0 0.00 0.00 0.00 84 1011.9
20260503000018 56 260 5.0 5.0 0.00 0.00 0.00 83 1011.9
20260502235515 56 239 5.0 11.0 0.00 0.00 0.00 84 1011.9
20260502235013 56 260 6.0 10.0 0.00 0.00 0.00 82 1012.0
20260502234509 57 246 3.0 7.0 0.00 0.00 0.00 82 1012.0
20260502234007 58 250 1.0 4.0 0.00 0.00 0.00 81 1012.0
20260502233506 58 255 3.0 10.0 0.00 0.00 0.00 82 1011.9
20260502233004 59 251 3.0 7.0 0.00 0.00 0.00 81 1011.9
20260502232500 59 275 4.0 4.0 0.00 0.00 0.00 80 1012.1
20260502231957 58 250 1.0 4.0 0.00 0.00 0.00 80 1012.3
20260502231454 58 287 2.0 4.0 0.00 0.00 0.00 81 1012.3
20260502230952 58 275 2.0 5.0 0.00 0.00 0.00 81 1012.2
20260502230450 58 251 0.0 4.0 0.00 0.00 0.00 82 1012.3
20260502225947 58 263 0.0 5.0 0.00 0.00 0.00 82 1012.4
20260502225444 58 283 3.0 4.0 0.00 0.00 0.00 82 1012.3
20260502224941 58 262 2.0 3.0 0.00 0.00 0.00 82 1012.5
20260502224437 58 253 2.0 4.0 0.00 0.00 0.00 82 1012.5
20260502223934 58 227 0.0 4.0 0.00 0.00 0.00 84 1012.6
20260502223432 57 247 2.0 4.0 0.00 0.00 0.00 83 1012.7
20260502222930 57 265 3.0 3.0 0.00 0.00 0.00 84 1012.7
20260502222427 57 275 1.0 4.0 0.00 0.00 0.00 84 1012.7
20260502221922 56 264 3.0 4.0 0.00 0.00 0.00 85 1012.7
20260502221419 56 249 2.0 10.0 0.00 0.00 0.00 87 1012.8
20260502220917 57 261 5.0 8.0 0.00 0.00 0.00 86 1012.8
20260502220412 57 251 9.0 11.0 0.00 0.00 0.00 86 1012.9
20260502215909 59 247 7.0 11.0 0.00 0.00 0.00 85 1012.8
20260502215407 59 265 0.0 3.0 0.00 0.00 0.00 84 1012.8
20260502214903 59 268 3.0 4.0 0.00 0.00 0.00 83 1013.0
20260502214400 58 266 0.0 3.0 0.00 0.00 0.00 85 1013.0
20260502213857 57 243 3.0 5.0 0.00 0.00 0.00 85 1013.0
20260502213354 57 291 1.0 7.0 0.00 0.00 0.00 86 1013.0
20260502212853 57 255 5.0 8.0 0.00 0.00 0.00 86 1013.1
20260502212351 58 275 2.0 4.0 0.00 0.00 0.00 86 1013.1
20260502211848 58 246 0.0 3.0 0.00 0.00 0.00 85 1013.3
20260502211343 58 245 1.0 4.0 0.00 0.00 0.00 86 1013.3
20260502210841 57 271 2.0 4.0 0.00 0.00 0.00 87 1013.3
20260502210338 56 248 5.0 7.0 0.00 0.00 0.00 88 1013.2
20260502205835 57 262 3.0 5.0 0.00 0.00 0.00 86 1013.3
20260502205331 57 262 1.0 5.0 0.00 0.00 0.00 87 1013.4
20260502204828 58 262 7.0 10.0 0.00 0.00 0.00 86 1013.4
20260502204326 58 234 6.0 7.0 0.00 0.00 0.00 86 1013.3
20260502203823 58 239 0.0 1.0 0.00 0.00 0.00 85 1013.3
20260502203321 58 263 3.0 5.0 0.00 0.00 0.00 86 1013.4
20260502202820 57 243 2.0 4.0 0.00 0.00 0.00 87 1013.5
20260502202319 58 256 3.0 10.0 0.00 0.00 0.00 87 1013.5
20260502201816 59 240 0.0 4.0 0.00 0.00 0.00 85 1013.4
20260502201312 58 255 3.0 5.0 0.00 0.00 0.00 86 1013.4
20260502200808 59 265 2.0 7.0 0.00 0.00 0.00 85 1013.4
20260502200304 59 265 1.0 4.0 0.00 0.00 0.00 83 1013.5
20260502195803 58 235 5.0 7.0 0.00 0.00 0.00 85 1013.5
20260502195259 60 264 5.0 5.0 0.00 0.00 0.00 82 1013.6
20260502194755 60 277 1.0 4.0 0.00 0.00 0.00 82 1013.5
20260502194253 59 271 1.0 4.0 0.00 0.00 0.00 84 1013.5
20260502193748 59 333 0.0 3.0 0.00 0.00 0.00 83 1013.5
20260502193246 59 271 3.0 3.0 0.00 0.00 0.00 82 1013.5
20260502192746 58 266 1.0 5.0 0.00 0.00 0.00 83 1013.6
20260502192238 59 247 4.0 5.0 0.00 0.00 0.00 81 1013.6
20260502191735 60 254 1.0 5.0 0.00 0.00 0.00 81 1013.7
20260502191233 59 265 0.0 3.0 0.00 0.00 0.00 82 1013.6
20260502190730 58 259 3.0 8.0 0.00 0.00 0.00 84 1013.7
20260502190227 58 129 3.0 4.0 0.00 0.00 0.00 84 1013.6
20260502185727 59 257 4.0 4.0 0.00 0.00 0.00 83 1013.6
20260502185224 59 243 0.0 0.0 0.00 0.00 0.00 83 1013.5
20260502184720 59 178 1.0 4.0 0.00 0.00 0.00 83 1013.6
20260502184216 58 267 0.0 1.0 0.00 0.00 0.00 84 1013.5
20260502183713 57 245 3.0 4.0 0.00 0.00 0.00 85 1013.6
20260502183208 57 256 5.0 7.0 0.00 0.00 0.00 86 1013.6
20260502182704 58 255 3.0 7.0 0.00 0.00 0.00 84 1013.6
20260502182200 58 262 0.0 1.0 0.00 0.00 0.00 86 1013.6
20260502181657 56 250 0.0 3.0 0.00 0.00 0.00 88 1013.6
20260502181156 56 254 0.0 4.0 0.00 0.00 0.00 88 1013.5
20260502180653 56 261 0.0 1.0 0.00 0.00 0.00 89 1013.7
20260502180150 55 255 0.0 1.0 0.00 0.00 0.00 89 1013.6
20260502170114 53 253 0.0 0.0 0.00 0.00 0.00 95 1013.4
20260502164100 53 252 0.0 0.0 0.00 0.00 0.00 95 1013.4
20260502163556 53 252 0.0 1.0 0.00 0.00 0.00 94 1013.4
20260502163053 53 259 0.0 0.0 0.00 0.00 0.00 94 1013.5
20260502162550 53 249 1.0 1.0 0.00 0.00 0.00 94 1013.5
20260502162047 53 240 0.0 3.0 0.00 0.00 0.00 95 1013.3
20260502161544 53 266 2.0 3.0 0.00 0.00 0.00 94 1013.3
20260502161041 53 139 1.0 3.0 0.00 0.00 0.00 95 1013.2
20260502160539 52 247 1.0 3.0 0.00 0.00 0.00 95 1013.2
20260502151947 52 252 0.0 0.0 0.00 0.00 0.00 96 1012.9
20260502151444 52 257 0.0 0.0 0.00 0.00 0.00 96 1012.7
20260502150941 52 248 0.0 0.0 0.00 0.00 0.00 96 1013.0
20260502150438 52 262 0.0 0.0 0.00 0.00 0.00 96 1012.9
20260502130323 51 309 0.0 0.0 0.00 0.00 0.00 97 1012.1
20260502123809 51 227 0.0 0.0 0.00 0.00 0.00 97 1012.1
20260502123306 51 258 0.0 0.0 0.00 0.00 0.00 97 1012.3
20260502122803 50 258 0.0 1.0 0.00 0.00 0.00 97 1012.2
20260502122259 51 205 0.0 0.0 0.00 0.00 0.00 97 1012.2
20260502121757 50 205 0.0 0.0 0.00 0.00 0.00 97 1012.0
20260502121254 50 205 0.0 0.0 0.00 0.00 0.00 97 1012.0
20260502120751 50 209 0.0 0.0 0.00 0.00 0.00 97 1012.0
20260502120248 50 209 0.0 0.0 0.00 0.00 0.00 97 1012.1
20260502115746 50 292 0.0 0.0 0.00 0.00 0.00 97 1012.2
20260502115242 50 124 0.0 0.0 0.00 0.00 0.00 97 1012.2
20260502114738 50 134 0.0 0.0 0.00 0.00 0.00 98 1012.2
20260502114235 50 134 0.0 0.0 0.00 0.00 0.00 97 1012.2
20260502113732 50 134 0.0 0.0 0.00 0.00 0.00 98 1012.0
20260502113230 50 134 0.0 0.0 0.00 0.00 0.00 98 1012.1
20260502112728 50 134 0.0 0.0 0.00 0.00 0.00 98 1012.2
20260502112226 50 134 0.0 0.0 0.00 0.00 0.00 98 1012.0
20260502111722 50 134 0.0 1.0 0.00 0.00 0.00 98 1012.0
20260502111220 50 134 0.0 0.0 0.00 0.00 0.00 98 1012.0
20260502110717 50 134 0.0 3.0 0.00 0.00 0.00 98 1012.0
20260502110215 50 213 1.0 1.0 0.00 0.00 0.00 98 1012.2
20260502105713 50 213 0.0 0.0 0.00 0.00 0.00 98 1012.3
20260502105209 51 240 0.0 1.0 0.00 0.00 0.00 98 1012.2
20260502104707 51 182 0.0 3.0 0.00 0.00 0.00 98 1012.1
20260502104204 51 254 0.0 0.0 0.00 0.00 0.00 98 1012.3
20260502103701 50 235 0.0 0.0 0.00 0.00 0.00 98 1012.1
20260502103159 50 10 0.0 3.0 0.00 0.00 0.00 98 1012.2
20260502102655 50 216 0.0 0.0 0.00 0.00 0.00 98 1012.2
20260502102152 50 216 0.0 1.0 0.00 0.00 0.00 98 1012.3
20260502101650 50 324 0.0 3.0 0.00 0.00 0.00 98 1012.3
20260502101148 50 163 0.0 1.0 0.00 0.00 0.00 98 1012.3
20260502100646 50 162 0.0 0.0 0.00 0.00 0.00 98 1012.2
20260502100144 50 134 0.0 3.0 0.00 0.00 0.00 98 1012.3
20260502091118 50 251 0.0 0.0 0.00 0.00 0.00 98 1012.7
20260502090615 50 211 1.0 1.0 0.00 0.00 0.00 98 1012.8
20260502090113 50 34 1.0 1.0 0.00 0.00 0.00 98 1012.8
20260502071510 51 249 0.0 1.0 0.00 0.00 0.00 99 1013.3
20260502071008 50 257 0.0 1.0 0.00 0.00 0.00 99 1013.1
20260502070506 50 226 0.0 3.0 0.00 0.00 0.00 99 1013.2
20260502070004 50 245 0.0 1.0 0.00 0.00 0.00 99 1013.0
20260502065502 51 211 2.0 3.0 0.00 0.00 0.00 99 1013.1
20260502065000 51 233 1.0 3.0 0.00 0.00 0.00 99 1013.2
20260502064458 51 260 0.0 0.0 0.00 0.00 0.00 99 1013.2
20260502063954 51 241 0.0 0.0 0.00 0.00 0.00 99 1013.1
20260502063452 51 236 0.0 0.0 0.00 0.00 0.00 99 1013.1
20260502062950 51 249 0.0 1.0 0.00 0.00 0.00 98 1013.1
20260502062446 51 257 1.0 5.0 0.00 0.00 0.00 98 1013.1
20260502061945 51 255 1.0 1.0 0.00 0.00 0.00 98 1013.1
20260502061443 51 258 0.0 0.0 0.00 0.00 0.00 98 1013.2
20260502060938 51 251 0.0 1.0 0.00 0.00 0.00 98 1013.3
20260502060434 51 228 0.0 3.0 0.00 0.00 0.00 98 1013.2
20260502055931 52 215 1.0 4.0 0.00 0.00 0.00 98 1013.3
20260502055429 51 247 0.0 0.0 0.00 0.00 0.00 98 1013.3
20260502054928 51 263 1.0 1.0 0.00 0.00 0.00 98 1013.3
20260502054426 51 250 0.0 3.0 0.00 0.00 0.00 98 1013.4
20260502053923 51 270 0.0 0.0 0.00 0.00 0.00 98 1013.4
20260502053420 51 241 0.0 5.0 0.00 0.00 0.00 97 1013.4
20260502052918 52 247 0.0 0.0 0.00 0.00 0.00 98 1013.4
20260502052416 51 255 0.0 0.0 0.00 0.00 0.00 98 1013.4
20260502051913 51 255 1.0 1.0 0.00 0.00 0.00 98 1013.5
20260502051412 51 244 0.0 3.0 0.00 0.00 0.00 98 1013.5
20260502050908 51 262 2.0 3.0 0.00 0.00 0.00 98 1013.6
20260502050404 51 253 2.0 3.0 0.00 0.00 0.00 98 1013.4
20260502045902 51 246 0.0 0.0 0.00 0.00 0.00 98 1013.4
20260502045358 51 252 0.0 0.0 0.00 0.00 0.00 98 1013.4
20260502044855 51 261 0.0 4.0 0.00 0.00 0.00 97 1013.6
20260502044351 52 240 1.0 4.0 0.00 0.00 0.00 97 1013.5
20260502043848 52 261 0.0 1.0 0.00 0.00 0.00 97 1013.5
20260502043346 52 268 1.0 1.0 0.00 0.00 0.00 97 1013.5
20260502042840 52 255 0.0 0.0 0.00 0.00 0.00 97 1013.5
20260502042338 52 245 3.0 3.0 0.00 0.00 0.00 97 1013.4
20260502041835 52 251 2.0 3.0 0.00 0.00 0.00 96 1013.4
20260502041332 52 247 2.0 4.0 0.00 0.00 0.00 96 1013.3
20260502040830 52 265 0.0 3.0 0.00 0.00 0.00 96 1013.3
20260502040326 52 260 3.0 3.0 0.00 0.00 0.00 96 1013.3
20260502035822 53 263 0.0 0.0 0.00 0.00 0.00 95 1013.0
20260502035319 53 253 0.0 0.0 0.00 0.00 0.00 95 1013.1
20260502034817 53 253 0.0 0.0 0.00 0.00 0.00 95 1013.1
20260502034315 53 258 0.0 0.0 0.00 0.00 0.00 95 1013.0
20260502033813 53 245 0.0 0.0 0.00 0.00 0.00 95 1013.0
20260502033310 53 259 0.0 0.0 0.00 0.00 0.00 95 1012.8
20260502032806 53 260 0.0 0.0 0.00 0.00 0.00 95 1012.7
20260502032305 53 254 0.0 0.0 0.00 0.00 0.00 95 1012.7
20260502031800 53 253 0.0 0.0 0.00 0.00 0.00 94 1012.7
20260502031258 53 253 0.0 0.0 0.00 0.00 0.00 94 1012.7
20260502030756 53 253 0.0 0.0 0.00 0.00 0.00 94 1012.6
20260502030254 53 253 0.0 0.0 0.00 0.00 0.00 93 1012.7
20260502025752 54 253 0.0 0.0 0.00 0.00 0.00 93 1012.6
20260502025250 54 261 0.0 3.0 0.00 0.00 0.00 93 1012.7
20260502024747 54 258 3.0 4.0 0.00 0.00 0.00 92 1012.6